Angleton, TX

3:50 PM CST on December 07, 2019 (GMT -0600)
Brazoria County

Weather History for KLBX - June, 2019

Change the Weather History Date:

Sunday, June 9, 2019

  Actual Average Record
Temperature  
Mean Temperature 85 °F -  
Max Temperature 96 °F 86 °F 96 °F (2019)
Min Temperature 75 °F 71 °F 68 °F (2006)
Cooling Degree Days 20    
Growing Degree Days 35 (Base 50)    
Moisture  
Dew Point 76 °F    
Average Humidity 78    
Maximum Humidity 96    
Minimum Humidity 49    
Precipitation  
Precipitation 0.00 in - - ()
Sea Level Pressure  
Sea Level Pressure 29.88 in    
Wind  
Wind Speed 3 mph (South)    
Max Wind Speed 12 mph    
Max Gust Speed -    
Visibility 9 miles    
Events      
Averages and records for this station are not official NWS values.
T = Trace of Precipitation, MM = Missing Value Source: NWS Daily Summary

Daily Weather History Graph

Daily Weather History Graph

Search for Another Location

Airport or City:

Astronomy

Jun. 09, 2019 Rise Set
Actual Time 6:22 AM CDT 8:20 PM CDT
Civil Twilight 5:55 AM CDT 8:47 PM CDT
Nautical Twilight 5:22 AM CDT 9:19 PM CDT
Astronomical Twilight 4:47 AM CDT 9:54 PM CDT
Moon 12:45 PM CDT (6/9) 1:14 AM CDT (6/9)
Length of Visible Light 14h 51m
Length of Day
13h 57m
Waxing Crescent, 44% of the Moon is Illuminated
Jun 9
Waxing Crescent
Jun 10
First Quarter
Jun 17
Full
Jun 25
Last Quarter
Jul 2
New

Hourly Weather History & Observations

Time (CDT) Temp. Heat Index Dew Point Humidity Pressure Visibility Wind Dir Wind Speed Gust Speed Precip Events Conditions
12:53 AM 75.9 °F - 73.9 °F 94% 29.81 in 10.0 mi Calm Calm - N/A   Clear
1:53 AM 75.9 °F - 73.9 °F 94% 29.81 in 9.0 mi Calm Calm - N/A   Clear
2:53 AM 77.0 °F - 73.9 °F 90% 29.81 in 10.0 mi SW 3.5 mph - N/A   Clear
3:53 AM 75.9 °F - 73.9 °F 94% 29.81 in 10.0 mi Calm Calm - N/A   Clear
4:53 AM 75.9 °F - 73.9 °F 94% 29.82 in 9.0 mi South 3.5 mph - N/A   Clear
5:53 AM 75.9 °F - 73.9 °F 94% 29.84 in 8.0 mi Calm Calm - N/A   Clear
6:38 AM 75.0 °F - 73.0 °F 94% 29.86 in 1.5 mi North 4.6 mph - N/A   Clear
6:49 AM 75.2 °F - 73.4 °F 94% 29.87 in 3.0 mi North 3.5 mph - N/A   Clear
6:53 AM 75.0 °F - 73.9 °F 96% 29.87 in 6.0 mi NNE 3.5 mph - N/A   Clear
7:53 AM 81.0 °F 87.9 °F 77.0 °F 88% 29.89 in 10.0 mi Calm Calm - N/A   Clear
8:53 AM 84.9 °F 95.3 °F 77.0 °F 77% 29.90 in 10.0 mi Calm Calm - N/A   Clear
9:53 AM 87.1 °F 98.8 °F 77.0 °F 72% 29.90 in 10.0 mi Calm Calm - N/A   Clear
10:53 AM 89.1 °F 99.1 °F 75.0 °F 63% 29.90 in 10.0 mi Calm Calm - N/A   Clear
11:53 AM 91.0 °F 102.9 °F 75.9 °F 61% 29.90 in 10.0 mi SSW 5.8 mph - N/A   Clear
12:53 PM 91.9 °F 103.2 °F 75.0 °F 58% 29.89 in 10.0 mi SSW 4.6 mph - N/A   Scattered Clouds
1:53 PM 93.0 °F 101.9 °F 73.0 °F 52% 29.89 in 10.0 mi Calm Calm - N/A   Clear
2:53 PM 95.0 °F 104.5 °F 73.0 °F 49% 29.89 in 10.0 mi Variable 4.6 mph - N/A   Clear
3:53 PM 91.0 °F 106.2 °F 78.1 °F 66% 29.89 in 10.0 mi South 8.1 mph - N/A   Partly Cloudy
4:53 PM 90.0 °F 104.5 °F 78.1 °F 68% 29.89 in 10.0 mi South 11.5 mph - N/A   Scattered Clouds
5:53 PM 90.0 °F 104.5 °F 78.1 °F 68% 29.91 in 10.0 mi SSE 9.2 mph - N/A   Mostly Cloudy
6:48 PM 87.8 °F 102.5 °F 78.8 °F 75% 29.92 in 10.0 mi East 5.8 mph - N/A   Mostly Cloudy
6:53 PM 88.0 °F 100.2 °F 77.0 °F 70% 29.92 in 10.0 mi East 6.9 mph - N/A   Mostly Cloudy
7:06 PM 88.0 °F 98.5 °F 75.9 °F 67% 29.92 in 10.0 mi ESE 5.8 mph - N/A   Overcast
7:53 PM 84.9 °F 95.3 °F 77.0 °F 77% 29.91 in 10.0 mi South 6.9 mph - N/A   Clear
8:53 PM 82.9 °F 91.8 °F 77.0 °F 82% 29.91 in 10.0 mi SSW 5.8 mph - N/A   Clear
9:53 PM 82.0 °F 90.2 °F 77.0 °F 85% 29.91 in 10.0 mi South 5.8 mph - N/A   Clear
10:53 PM 82.0 °F 90.2 °F 77.0 °F 85% 29.95 in 10.0 mi West 5.8 mph - N/A   Clear
11:53 PM 81.0 °F 88.6 °F 78.1 °F 91% 29.97 in 10.0 mi WNW 3.5 mph - N/A   Clear